Location: Firdgum
(53.2488°N, 5.5615°E)
Time: 07:09:09
(UTC+00:00)

Helios 1A Rocket - Pass Details

Date: 08 December 2019
Orbit: 563 x 587 km, 98.3° (Epoch: 19 January)

Event Time Altitude Azimuth Distance (km) Brightness Sun altitude
Rises 06:34:43 0° 7° (N) 2,788 6.2 -8.9°
Reaches altitude 10° 06:37:07 10° 355° (N) 1,882 5.2 -8.5°
Maximum altitude 06:40:31 26° 298° (WNW) 1,136 3.8 -8.1°
Drops below altitude 10° 06:43:52 10° 242° (WSW) 1,863 5.2 -7.6°
Sets 06:46:14 0° 229° (SW) 2,753 6.2 -7.3°
